Theta_e
330 324 328 318 313 315 316 314 315 315 316 318 319 318 319 320 320 318 316 316 319 319 323 327 334 333 329 330 330 329 328 325
331 331 322 316 314 315 315 315 312 315 319 319 319 319 319 318 318 316 315 315 317 322 327 328 334 334 332 331 330 328 327 327
328 326 314 312 313 312 314 314 314 317 319 319 318 319 318 317 316 315 314 315 320 324 328 335 334 332 330 328 326 325 325 325
332 328 317 314 313 313 314 314 317 318 318 318 318 318 317 317 318 317 317 318 317 321 324 325 327 327 325 325 324 324 324 324
330 328 315 316 312 313 314 314 315 316 317 316 315 315 315 315 313 313 313 315 316 315 316 323 327 321 319 320 324 326 324 325
319 318 315 315 313 314 314 314 315 316 316 315 313 313 313 314 315 315 315 318 319 317 317 319 318 318 320 321 322 324 323 323
324 316 315 314 314 313 315 315 316 315 314 313 313 313 313 314 316 318 319 320 321 319 318 318 319 319 320 319 320 322 320 320
320 314 315 314 313 314 317 317 315 314 313 312 313 313 314 315 317 319 320 320 320 319 318 319 319 320 319 319 320 319 319 319
319 314 313 313 313 314 316 317 314 313 313 312 312 313 314 316 318 320 319 319 318 319 319 321 320 320 319 319 318 318 318 319
319 317 312 313 313 317 315 315 315 312 312 311 312 312 314 317 319 320 319 319 318 319 321 321 320 320 320 319 318 319 318 319
316 312 314 313 315 316 316 316 314 311 312 312 311 313 316 318 321 320 318 319 318 319 320 322 320 322 322 321 320 321 320 321
314 314 314 315 315 317 316 315 314 312 312 312 312 314 316 319 320 320 318 318 318 320 321 321 321 322 322 322 321 321 321 320
316 314 315 314 315 316 316 314 313 312 312 312 312 314 317 320 320 320 318 318 318 322 322 322 321 322 323 322 321 322 320 320
317 314 315 314 316 315 314 314 313 312 312 312 312 314 318 321 320 320 318 319 320 323 323 322 322 324 324 324 323 323 323 323
318 314 315 314 316 315 314 314 314 312 313 313 313 315 319 321 321 320 318 318 322 323 324 325 324 324 325 325 325 324 324 324
318 318 315 315 314 314 316 315 315 312 313 313 314 315 319 321 321 320 319 318 318 322 323 323 324 325 325 325 325 324 324 324
320 318 316 316 315 316 315 314 314 312 312 313 314 314 318 320 321 321 321 319 318 322 323 323 323 324 325 325 326 325 324 324
317 317 315 317 316 315 315 315 314 312 312 313 313 314 317 320 321 321 319 321 317 320 322 323 324 324 325 326 325 325 324 324
318 318 315 315 315 315 315 315 316 312 312 312 313 314 315 317 319 320 318 318 320 315 316 317 325 325 325 326 326 326 321 325
318 318 318 315 317 315 316 316 318 312 311 312 312 313 314 315 315 321 321 318 317 317 317 317 325 326 326 326 326 326 326 326
Wind_Speed
4 3 4 5 6 7 3 4 3 3 2 2 2 2 8 5 7 8 6 6 10 14 20 20 18 18 20 18 18 19 18 17
3 5 6 6 5 4 2 1 4 3 2 1 3 4 7 6 9 10 8 8 12 16 18 17 17 17 19 20 20 21 20 20
1 5 4 5 4 7 6 1 2 3 3 2 2 3 4 4 6 10 9 8 9 12 13 15 16 18 21 22 24 24 22 22
3 6 5 5 5 6 5 4 2 3 5 4 2 3 1 1 3 3 2 2 4 8 12 15 16 19 21 23 25 25 25 24
4 5 5 5 6 5 6 3 4 7 5 2 1 3 6 6 4 3 3 1 3 9 12 15 16 18 19 20 19 18 22 25
4 5 7 5 5 2 6 6 3 5 5 5 4 11 9 7 4 3 1 2 5 10 10 10 13 17 16 18 18 15 16 17
5 3 7 1 3 1 1 6 1 1 4 2 17 12 9 5 3 1 3 6 8 7 9 13 16 15 16 16 15 14 17 18
7 6 6 4 5 7 3 3 1 2 4 12 13 9 6 3 2 4 6 7 6 10 11 15 14 14 14 13 12 11 13 14
8 8 7 5 2 4 6 4 7 9 8 6 8 8 6 2 1 5 7 7 10 9 11 14 12 13 12 10 11 12 13 12
7 8 7 6 6 5 5 7 5 8 9 7 7 7 6 3 2 4 6 7 10 7 10 12 10 11 12 12 12 12 10 7
4 7 4 7 5 4 8 4 5 9 8 9 7 8 6 5 2 5 7 7 9 7 10 12 9 11 13 11 10 8 6 4
2 1 2 6 1 2 6 6 7 9 9 7 8 10 7 5 2 4 6 7 9 8 9 12 9 11 11 10 6 6 6 5
1 4 3 4 3 9 4 7 9 9 6 7 7 10 8 5 2 3 5 7 8 9 8 11 7 9 9 8 6 6 4 5
4 5 3 6 10 6 9 11 10 8 7 7 6 8 8 5 1 2 4 7 9 8 8 10 7 9 9 7 6 6 5 5
6 7 3 5 9 3 6 11 9 8 7 7 6 5 7 6 2 2 4 6 7 9 9 10 9 9 8 7 5 4 5 5
4 3 4 3 13 6 6 10 9 9 8 7 7 7 10 8 4 1 3 5 8 9 10 11 9 8 7 7 6 7 6 3
4 5 5 7 9 16 6 6 8 9 9 8 8 7 10 8 5 2 2 4 7 9 11 13 10 9 8 10 9 10 8 6
5 3 6 8 10 8 7 9 11 13 10 9 6 6 8 9 6 3 3 2 3 5 9 13 11 8 7 12 10 10 7 9
7 2 3 1 7 5 5 3 4 6 7 6 10 9 7 9 7 5 2 2 3 4 8 10 12 9 8 7 9 11 6 11
4 2 5 4 5 6 6 6 7 9 10 12 10 6 6 9 8 8 1 3 3 3 7 7 8 10 10 8 11 10 8 8
Wind_Direction
85 106 202 230 231 210 249 214 175 130 57 159 193 134 172 194 205 223 235 228 232 239 241 244 236 241 246 247 252 256 260 261
97 226 262 219 248 197 248 250 202 150 178 307 220 177 186 205 220 226 220 227 230 236 241 246 241 245 252 254 258 262 265 263
9 252 249 257 257 172 186 238 210 148 206 219 267 166 184 234 259 249 251 245 226 234 243 246 249 256 259 264 266 266 264 261
304 274 277 259 196 164 189 207 174 106 135 233 269 170 258 351 96 95 122 194 231 240 252 257 257 263 271 274 275 268 262 258
244 271 298 233 154 192 187 183 231 155 145 253 170 136 125 114 91 86 110 56 273 241 244 247 256 269 279 282 284 275 269 257
241 253 264 223 181 217 153 215 97 143 199 229 169 135 127 116 104 124 175 294 281 264 261 282 291 293 285 286 288 290 276 264
248 199 249 215 164 279 12 130 116 217 153 177 142 145 134 123 89 78 313 307 294 272 291 307 311 305 297 299 290 280 277 270
199 197 236 212 191 175 172 140 88 66 69 126 137 149 134 116 38 341 323 316 307 303 306 314 315 313 313 300 291 278 275 270
230 212 185 192 233 177 134 252 210 195 165 137 135 141 144 151 297 311 313 305 321 308 314 320 324 331 329 317 302 290 288 274
252 185 148 185 134 199 201 228 219 169 149 144 156 167 165 189 252 282 310 328 331 310 321 331 324 334 331 318 307 297 284 271
241 157 171 120 198 194 238 322 119 126 146 157 164 173 179 195 224 314 328 339 338 318 323 333 324 328 320 315 301 292 278 258
52 161 171 153 193 144 239 140 136 149 175 169 165 183 185 187 193 330 344 343 345 329 330 338 330 326 328 325 315 304 279 256
245 150 235 114 303 236 194 159 162 178 163 162 191 196 181 198 173 344 14 356 352 350 340 346 336 331 334 333 347 343 303 262
278 150 250 142 263 264 187 165 189 175 168 173 194 202 180 192 202 15 24 3 8 3 0 358 342 342 338 343 349 333 317 290
310 202 131 174 264 283 174 182 184 172 174 179 194 204 195 196 205 21 21 1 11 8 5 353 345 340 350 0 355 341 341 313
243 243 184 224 264 256 200 199 192 172 173 184 193 206 197 195 200 4 15 0 360 349 352 341 328 336 345 358 7 14 359 20
268 243 182 237 252 274 207 205 185 185 180 188 200 208 198 198 204 270 320 347 13 22 7 353 344 351 356 0 360 30 31 38
275 278 162 272 272 266 186 224 202 189 184 186 186 179 199 202 200 241 351 294 352 3 360 359 359 353 355 353 5 44 61 60
241 314 240 174 307 299 266 250 174 182 180 170 185 182 198 200 205 219 18 15 356 347 342 346 2 17 14 25 55 80 61 70
268 39 272 135 271 284 279 274 226 193 184 183 184 180 195 191 199 207 164 67 41 348 336 346 19 43 63 37 65 75 88 81